Regional Weather Roundup
Issued by NWS

Home | Current Version | Previous Version | Graphics & Text | Print | Product List | Glossary On
Versions: 1 2 3 4 5 6 7 8 9 10 11 12 13 14 15 16 17 18 19 20 21 22 23 24 25 26 27 28 29 30 31 32 33 34 35 36 37 38 39 40 41 42 43 44 45 46 47 48 49 50
000
ASUS45 KSLC 290910
RWRUT

UTAH REGIONAL WEATHER ROUNDUP
NATIONAL WEATHER SERVICE SALT LAKE CITY UT
200 AM MST MON DEC 29 2014

UTZ001>011-023>025-291000-

NORTHERN UTAH

CITY           SKY/WX    TMP DP  RH WIND       PRES   REMARKS
BRIGHAM CITY   CLOUDY    28  26  91 CALM      30.03R
HILL AFB       LGT SNOW  24  24  99 E6        30.00S FOG     WCI  17
LOGAN          MOCLDY    16  13  88 W7        30.02R FOG     WCI   6
OGDEN          LGT SNOW  26  25  96 S3        30.00S VSB 1
PROVO AIRPORT  CLOUDY    25  23  93 S5        30.02S WCI  19
SALT LAKE CITY LGT SNOW  27  25  92 S5        30.01S FOG     WCI  22
VERNAL         CLOUDY    19  10  68 NW6       29.98S WCI  11
WENDOVER       CLOUDY    25  21  86 W3        30.03S
HEBER CITY     FLURRIES  19  18  93 CALM      29.96S
WEST JORDAN    CLOUDY    25  25 100 SW3       30.01S

$$

UTZ012>022-026-027-291000-

SOUTHERN/CENTRAL UTAH

CITY           SKY/WX    TMP DP  RH WIND       PRES   REMARKS
BLANDING       MOCLDY    16  10  78 CALM      30.06S
BRYCE CANYON   CLEAR      2  -2  83 CALM      29.94F
CEDAR CITY     CLEAR     11   5  77 SE3       29.99F
DELTA          CLOUDY    25  24  95 CALM      30.02S
MILFORD        PTCLDY    13  10  88 W10       30.00F WCI   0
MOAB/CYNLANDS  CLOUDY    20  17  88 S8        29.99F WCI  10
PRICE          CLOUDY    20  16  84 NE3       29.95S
ST GEORGE      PTSUNNY   27   7  43 CALM      30.12S
KANAB          CLEAR     18  10  73 CALM      30.07F

$$

REGIONAL REPORTS     COLORADO/ARIZONA

CITY           SKY/WX    TMP DP  RH WIND       PRES   REMARKS
CRAIG, CO        N/A     15  13  91 MISG      29.97R
GRAND JUNCTION LGT SNOW  22  21  96 CALM      30.00S FOG
RIFLE          LGT SNOW  20  17  88 NE3       29.99S FOG
MONTROSE       CLOUDY    18  13  80 CALM      30.00R
CORTEZ         CLEAR      6   2  83 E3        30.00F
PAGE, AZ       CLEAR     27  11  51 W3        30.02S
GRAND CANYON   PTCLDY     9   4  80 NE6       30.06S WCI  -1
KINGMAN        CLEAR     25  13  60 E9        30.09F WCI  15
FLAGSTAFF      CLEAR     19  10  68 SW6       30.04F WCI  11

$$

REGIONAL REPORTS    NEVADA/IDAHO/WYOMING

CITY           SKY/WX    TMP DP  RH WIND       PRES   REMARKS
LAS VEGAS, NV  CLEAR     34  14  43 S8        30.06F WCI  27
ELY            LGT SNOW  23  22  96 N7        29.99S VSB 3/4 WCI  15
ELKO           PTCLDY    11   7  84 CALM      30.05S
POCATELLO, ID  CLOUDY    23  22  96 N5        30.04S WCI  17
BURLEY         CLOUDY    25  22  88 SW3       30.03S
EVANSTON, WY   CLOUDY    14  11  87 E5        29.91F WCI   6
ROCK SPRINGS   LGT SNOW   8   6  92 CALM      29.96R FOG
KEMMERER       PTCLDY     1   0  92 N9        29.92S WCI -14

$$


USA.gov is the U.S. government's official web portal to all federal, state and local government web resources and services.